K3GM Weather Reports


time (UTC)temp
C
wind
direction
speed
KPH
gust
KPH
rain 1hr
cm
rain 24hr
cm
rain mn
cm
humidity
%
barometer
mb
20260507000037 19 0 0.0 1.6 0.00 0.03 0.03 81 1008.5
20260506234536 20 0 0.0 0.0 0.00 0.03 0.03 80 1008.5
20260506233035 20 0 0.0 3.2 0.00 0.03 0.03 79 1008.2
20260506231538 20 0 0.0 1.6 0.00 0.03 0.03 78 1008.4
20260506230039 20 0 0.0 4.8 0.00 0.03 0.03 76 1008.1
20260506224535 20 0 0.0 3.2 0.00 0.03 0.03 77 1008.5
20260506223036 20 0 0.0 1.6 0.00 0.03 0.03 77 1008.0
20260506221535 20 0 0.0 4.8 0.00 0.03 0.03 77 1008.3
20260506220039 20 0 0.0 4.8 0.00 0.03 0.03 77 1008.0
20260506214543 20 266 0.0 6.4 0.00 0.03 0.03 78 1008.1
20260506213036 20 0 0.0 3.2 0.00 0.03 0.03 71 1007.9
20260506211534 19 0 0.0 3.2 0.00 0.03 0.03 79 1008.1
20260506210035 20 0 0.0 4.8 0.00 0.03 0.03 78 1008.0
20260506204542 20 226 0.0 6.4 0.00 0.03 0.03 77 1007.7
20260506203035 20 0 0.0 3.2 0.00 0.03 0.03 79 1007.7
20260506201535 19 207 0.0 6.4 0.00 0.03 0.03 79 1007.7
20260506200035 19 0 0.0 3.2 0.00 0.03 0.03 80 1007.8
20260506194542 18 0 0.0 4.8 0.00 0.03 0.03 81 1007.9
20260506193038 18 0 0.0 6.4 0.00 0.03 0.03 82 1008.3
20260506191537 18 0 1.6 8.0 0.00 0.03 0.03 82 1008.3
20260506190035 18 0 0.0 4.8 0.00 0.03 0.03 83 1008.4
20260506184535 18 178 1.6 8.0 0.00 0.03 0.03 84 1008.5
20260506183035 18 0 0.0 6.4 0.00 0.03 0.03 84 1008.6
20260506181544 18 151 0.0 8.0 0.00 0.03 0.03 81 1008.8
20260506180051 18 189 1.6 9.7 0.00 0.03 0.03 81 1008.7
20260506174533 18 0 1.6 11.3 0.00 0.03 0.03 81 1008.9
20260506173041 18 166 3.2 9.7 0.00 0.03 0.03 82 1008.8
20260506171535 18 0 1.6 11.3 0.03 0.03 0.03 82 1009.1
20260506170033 18 173 3.2 14.5 0.03 0.03 0.03 75 1009.1
20260506164536 19 0 0.0 9.7 0.03 0.03 0.03 83 1009.2
20260506163038 18 0 0.0 3.2 0.03 0.03 0.03 84 1009.4
20260506161536 19 0 0.0 3.2 0.00 0.00 0.00 82 1010.0
20260506160036 19 0 0.0 1.6 0.00 0.00 0.00 79 1010.2
20260506154540 19 0 0.0 4.8 0.00 0.00 0.00 69 1010.4
20260506153035 20 0 0.0 6.4 0.00 0.00 0.00 66 1010.2
20260506151536 20 0 1.6 9.7 0.00 0.00 0.00 68 1010.2
20260506150035 20 0 1.6 11.3 0.00 0.00 0.00 60 1010.1
20260506144544 20 0 0.0 12.9 0.00 0.00 0.00 61 1010.4
20260506143038 20 0 1.6 9.7 0.00 0.00 0.00 60 1010.3
20260506141537 20 196 4.8 11.3 0.00 0.00 0.00 66 1010.2
20260506140036 20 171 0.0 9.7 0.00 0.00 0.00 61 1010.2
20260506134536 20 155 0.0 8.0 0.00 0.00 0.00 70 1010.0
20260506133035 19 182 0.0 8.0 0.00 0.00 0.00 71 1010.1
20260506131536 20 197 3.2 9.7 0.00 0.00 0.00 70 1010.3
20260506130038 20 0 3.2 16.1 0.00 0.00 0.00 70 1010.3
20260506124538 20 173 3.2 9.7 0.00 0.00 0.00 63 1010.2
20260506123036 19 183 1.6 12.9 0.00 0.00 0.00 71 1010.2
20260506121534 18 142 1.6 8.0 0.00 0.00 0.00 66 1010.3
20260506120038 18 0 3.2 19.3 0.00 0.00 0.00 75 1010.4
20260506114535 18 144 3.2 9.7 0.00 0.00 0.00 75 1010.5
20260506113033 18 171 1.6 11.3 0.00 0.00 0.00 76 1010.5
20260506111533 18 181 4.8 17.7 0.00 0.00 0.00 76 1010.3
20260506110042 17 162 1.6 12.9 0.00 0.00 0.00 77 1010.4
20260506104537 17 0 3.2 14.5 0.00 0.00 0.00 79 1010.3
20260506103037 17 154 0.0 17.7 0.00 0.00 0.00 80 1010.3
20260506101536 17 0 1.6 8.0 0.00 0.00 0.00 81 1010.5
20260506100035 17 0 0.0 11.3 0.00 0.00 0.00 81 1010.3
20260506094535 17 147 0.0 11.3 0.00 0.00 0.00 81 1010.3
20260506093040 17 0 0.0 11.3 0.00 0.00 0.00 80 1010.1
20260506091537 17 0 1.6 12.9 0.00 0.00 0.00 80 1010.2
20260506090039 17 0 0.0 11.3 0.00 0.00 0.00 79 1010.4
20260506084537 17 0 1.6 17.7 0.00 0.00 0.00 79 1010.4
20260506083038 18 0 1.6 8.0 0.00 0.00 0.00 79 1010.5
20260506081535 18 167 1.6 11.3 0.00 0.00 0.00 78 1010.5
20260506073033 18 0 0.0 8.0 0.00 0.00 0.00 78 1010.5
20260506071537 18 147 0.0 12.9 0.00 0.00 0.00 78 1010.6
20260506061532 18 159 0.0 3.2 0.00 0.00 0.00 77 1011.0
20260506044546 19 0 0.0 6.4 0.00 0.00 0.00 73 1011.5
20260506043036 19 192 1.6 11.3 0.00 0.00 0.00 72 1011.5
20260506041547 19 159 1.6 8.0 0.00 0.00 0.00 71 1011.4
20260506040038 20 161 3.2 14.5 0.00 0.00 0.00 69 1011.4
20260506034533 20 165 0.0 11.3 0.00 0.00 0.00 68 1011.4
20260506033032 20 177 1.6 9.7 0.00 0.00 0.00 67 1011.2
20260506031536 20 157 1.6 12.9 0.00 0.00 0.00 66 1011.2
20260506030033 20 171 1.6 9.7 0.00 0.00 0.00 65 1011.4
20260506024537 20 0 1.6 11.3 0.00 0.00 0.00 64 1011.3
20260506023034 21 169 1.6 12.9 0.00 0.00 0.00 62 1011.4
20260506021539 21 178 3.2 12.9 0.00 0.00 0.00 61 1011.3
20260506020036 21 0 0.0 12.9 0.00 0.00 0.00 60 1011.4
20260506014535 21 198 3.2 20.9 0.00 0.00 0.00 59 1011.2
20260506013039 21 0 1.6 25.7 0.00 0.00 0.00 60 1011.1
20260506011558 21 148 1.6 17.7 0.00 0.00 0.00 60 1011.1
20260506010030 21 173 4.8 14.5 0.00 0.00 0.00 59 1010.9
20260506004543 22 157 4.8 20.9 0.00 0.00 0.00 50 1010.9
20260506003035 22 168 0.0 24.1 0.00 0.00 0.00 53 1010.6
20260506001535 23 150 1.6 20.9 0.00 0.00 0.00 49 1010.2